STARLINK-5655 (55336 NORAD) Tracking and Keplerian Element Data

This shows tracking and keplerian element data for the satellite.

Feedback or suggestion? Click here.




ElementValue
Catalog55336
NameSTARLINK-5655
Epoch Orbit1619
Epoch Day126.91667824
Epoch Year2023
RAAN165.2306
Inclination42.9972
Eccentricity0.0001481
Argument of Perigee263.5075
Mean Anonmoly72.041
Mean Motion15.09933331
Decay Rate-0.00732874
L11 55336U 23013F 23126.91667824 -.00732874 00000+0 -47794-1 0 9992
L22 55336 42.9972 165.2306 0001481 263.5075 72.0410 15.09933331 16190



Live tracking and technical data element details for STARLINK-5655 (NORAD 55336). STARLINK-5655 can be tracked NOW for your location showing map with azimuth and elevation plus other details from your city location.







IsCatalogInMostPopularTable: catalog: 55336, numindb: 1
Update: records affected: 1



GetName: 55336 STARLINK-5655

Hit Count: updated at: Mon, 05 Jun 2023 19:11:11 GMT